Regional Weather Roundup
Issued by NWS Little Rock, AR

Home | Current Version | Previous Version | Graphics & Text | Print | Product List | Glossary On
Versions: 1 2 3 4 5 6 7 8 9 10 11 12 13 14 15 16 17 18 19 20 21 22 23 24 25 26 27 28 29 30 31 32 33 34 35 36 37 38 39 40 41 42 43 44 45 46 47 48 49 50
000
ASUS44 KLZK 210105
RWRLZK

WEATHER ROUNDUP FOR ARKANSAS
NATIONAL WEATHER SERVICE LITTLE ROCK AR
800 PM CDT WED AUG 20 2014

NOTE: "FAIR" INDICATES FEW OR NO CLOUDS BELOW 12,000 FEET WITH NO
SIGNIFICANT WEATHER AND/OR OBSTRUCTIONS TO VISIBILITY.

ARZ001-003-010-029-210200-
NORTHWEST ARKANSAS

CITY           SKY/WX    TMP DP  RH WIND       PRES   REMARKS
FAYETTEVILLE   CLEAR     82  66  58 SE3       29.96F
FORT SMITH     CLEAR     87  70  56 SE3       29.93R HX  92
HARRISON       CLEAR     80  65  59 S6        29.98S
BENTONVILLE    CLEAR     82  63  51 S7        29.97S
ROGERS         CLEAR     82  64  54 S10       29.97S
SILOAM SPGS    CLEAR     81  63  54 S8        29.96S
HIGHFILL       CLEAR     82  64  54 S10       29.95F
SPRINGDALE     CLEAR     84  64  51 S9        29.98F HX  86
$$

ARZ004-005-016-210200-
NORTH CENTRAL ARKANSAS

CITY           SKY/WX    TMP DP  RH WIND       PRES   REMARKS
BATESVILLE     CLEAR     86  70  58 S9        29.95R HX  90
FLIPPIN        CLEAR     86  63  45 S5        29.96R HX  87
MTN HOME       CLEAR     84  62  47 SW5       29.95R HX  85
$$

ARZ040-041-210200-
WEST CENTRAL ARKANSAS

CITY           SKY/WX    TMP DP  RH WIND       PRES   REMARKS
MENA           CLEAR     82  72  69 CALM      30.00S HX  87
MOUNT IDA      CLEAR     80  72  76 CALM      29.98S
$$

ARZ009-017-025-026-028-210200-
NORTHEAST ARKANSAS

CITY           SKY/WX    TMP DP  RH WIND       PRES   REMARKS
CORNING        LGT RAIN  86  75  70 S10G21    29.93R HX  95
JONESBORO      CLEAR     86  72  62 S14       29.95R HX  92
NEWPORT        CLEAR     84  73  69 S10       29.97R HX  90
WALNUT RIDGE   CLEAR     84  66  54 S10       29.93R HX  86
BLYTHEVILLE    CLEAR     84  76  76 S7        29.97R HX  93
$$

ARZ022-023-033-042-044-210200-
CENTRAL ARKANSAS

CITY           SKY/WX    TMP DP  RH WIND       PRES   REMARKS
LITTLE ROCK    PTCLDY    84  73  69 S6        29.98R HX  90
N LITTLE ROCK  PTCLDY    86  75  69 S7        29.98R HX  94
JACKSONVILLE   CLEAR     85  74  68 S6        29.97S HX  93
SEARCY           N/A     84  74  72 CALM        N/A  HX  91
HOT SPRINGS    CLEAR     86  73  65 S7        29.99S HX  93
RUSSELLVILLE   CLEAR     84  70  62 CALM      29.96R HX  88
CLINTON        FAIR      88  68  51 CALM      29.96R HX  91
$$

ARZ036-210200-
EAST ARKANSAS

CITY           SKY/WX    TMP DP  RH WIND       PRES   REMARKS
WEST MEMPHIS   CLEAR     83  75  77 S5        29.97R HX  90
$$

ARZ050-053-066-070-073-210200-
SOUTHWEST ARKANSAS

CITY           SKY/WX    TMP DP  RH WIND       PRES   REMARKS
ARKADELPHIA    FAIR      84  79  85 CALM      29.98S HX  95
CAMDEN         CLEAR     84  73  70 S3        29.98S HX  91
TEXARKANA      PTCLDY    87  71  58 SE6       29.97S HX  93
EL DORADO      CLEAR     84  75  74 SE6       30.01R HX  92
DE QUEEN       CLEAR     83  75  77 SE5       29.93F HX  90
$$

ARZ056-057-069-210200-
SOUTHEAST ARKANSAS

CITY           SKY/WX    TMP DP  RH WIND       PRES   REMARKS
PINE BLUFF     CLEAR     83  75  77 S7        29.99S HX  90
STUTTGART      CLEAR     86  73  66 S8        29.99S HX  93
MONTICELLO     CLEAR     84  75  74 S3        30.00S HX  92

$$





USA.gov is the U.S. government's official web portal to all federal, state and local government web resources and services.